Location: Downe
(51.3167°N, 0.0500°E)
Time: 03:29:40
(UTC+00:00)

SJ 16-02 - Pass Details

Date: 17 November 2019
Orbit: 607 x 616 km, 75.0° (Epoch: 07 December)

Event Time Altitude Azimuth Distance (km) Brightness Sun altitude
Exits shadow 05:14:57 29° 223° (SW) 1,136 2.4 -19.2°
Maximum altitude 05:17:05 63° 296° (WNW) 684 1.2 -18.9°
Drops below altitude 10° 05:21:27 10° 18° (NNE) 1,970 4.1 -18.2°
Sets 05:23:43 0° 22° (NNE) 2,878 5.0 -17.9°
